Regional Weather Roundup
Issued by NWS Huntsville, AL

Home | Current Version | Previous Version | Text Only | Print | Product List | Glossary On
Versions: 1 2 3 4 5 6 7 8 9 10 11 12 13 14 15 16 17 18 19 20 21 22 23 24 25 26 27 28 29 30 31
000
ASUS44 KHUN 221610
RWRHUN

WEATHER ROUNDUP FOR THE TENNESSEE VALLEY
NATIONAL WEATHER SERVICE HUNTSVILLE AL
1100 AM CDT WED OCT 22 2014

ALZ001>004-221700-
NORTHWEST ALABAMA

CITY           SKY/WX    TMP DP  RH WIND       PRES   REMARKS
SHOALS AIRPORT SUNNY     61  40  45 NE7G16    30.24S
$$

ALZ005>007-016-221700-
NORTH CENTRAL ALABAMA

CITY           SKY/WX    TMP DP  RH WIND       PRES   REMARKS
DECATUR AP     SUNNY     59  40  49 NE13G18   30.22F
HUNTSVILLE AP  MOSUNNY   61  41  47 NE9       30.21S
HUN NWS/UAH      N/A     58  41  53 NE6         N/A
MERIDIANVILLE  SUNNY     55  37  50 NE6       30.23R
VINEMONT AP    FAIR      57  40  54 NE15      30.22R
$$

ALZ008>010-221700-
NORTHEAST ALABAMA

CITY           SKY/WX    TMP DP  RH WIND       PRES   REMARKS
ALBERTVILLE    SUNNY     55  46  71 N16       30.18R
FORT PAYNE     SUNNY     57  36  44 NE12G17   30.18S
SCOTTSBORO AP  SUNNY     57  39  51 NE14G25   30.22R
SCOTTSBORO HCN   N/A     57 N/A N/A MISG        N/A
VALLEY HEAD      N/A     55 N/A N/A MISG        N/A
$$

TNZ076-096-097-221700-
SOUTHEASTERN MIDDLE TENNESSEE

CITY           SKY/WX    TMP DP  RH WIND       PRES   REMARKS
TULLAHOMA      SUNNY     54  39  58 NE12      30.23S
WINCHESTER     SUNNY     55  43  62 N8        30.23R
$$

...SURROUNDING SITES...

CITY           SKY/WX    TMP DP  RH WIND       PRES   REMARKS
ATLANTA        SUNNY     61  39  44 N7        30.12S
ANNISTON       SUNNY     62  40  44 N10       30.16R
BIRMINGHAM     SUNNY     61  39  44 N8        30.19S
CHATTANOOGA    MOSUNNY   59  40  49 N14       30.22R
CORINTH        FAIR      59  41  51 NE14      30.25S
DALTON         SUNNY     55  43  62 N14G22    30.20R
GADSDEN        SUNNY     61  39  44 NE13      30.18S
GOLDEN TRNGL   SUNNY     63  43  48 NE10      30.20S
HALEYVILLE     FAIR      59  42  53 NE9       30.24R
JACKSON TN     SUNNY     60  44  55 NE9       30.27S
MEMPHIS        SUNNY     62  40  44 E12       30.26R
NASHVILLE      MOSUNNY   57  41  55 NE13G18   30.27R
OXFORD MS      FAIR      59  41  51 E9        30.25S
ROME           SUNNY     60  41  49 N20       30.17R
SAVANNAH       SUNNY     59  45  58 NE9       30.26R
TUPELO         SUNNY     61  41  47 E13       30.23S
TUSCALOOSA     SUNNY     63  42  46 N12       30.19R
$$

...GULF COAST WEATHER...

CITY           SKY/WX    TMP DP  RH WIND       PRES   REMARKS
GULFPORT       SUNNY     74  51  44 E9        30.10S
PASCAGOULA     SUNNY     74  51  44 NE9       30.10S
MOBILE         SUNNY     70  53  54 NE9       30.11S
GULF SHORES    SUNNY     71  54  54 NE7       30.09S
PENSACOLA      SUNNY     74  52  46 NE10      30.09R
DESTIN         SUNNY     73  52  47 E7        30.08S
PANAMA CITY    SUNNY     74  55  49 NE8       30.06S
APPALACHICOLA  SUNNY     77  53  43 NE9       30.05S
$$




USA.gov is the U.S. government's official web portal to all federal, state and local government web resources and services.